Location: Lecco
(45.8566°N, 9.3977°E)
Time: 02:47:56
(UTC+02:00)

OTV 5 (USA 277) - Visible Passes

Search period start: 16 June 2019 00:00
Search period end: 26 June 2019 00:00
Orbit: 310 x 325 km, 54.5° (Epoch: 08 May)

Date Brightness Start Highest point End Pass type
(mag) Time Alt. Az. Time Alt. Az. Time Alt. Az.
16 Jun ? 01:41:25 33° NE 01:41:25 33° NE 01:43:09 10° NE visible
16 Jun ? 03:13:05 10° WNW 03:15:05 18° NNW 03:17:05 10° NNE visible
16 Jun ? 04:48:35 10° NNW 04:50:14 14° N 04:51:52 10° NE visible
17 Jun ? 01:54:57 33° NW 01:55:12 34° NNW 01:57:46 10° NE visible
17 Jun ? 03:28:30 10° NW 03:30:09 14° N 03:31:48 10° NNE visible
18 Jun ? 00:37:29 18° ENE 00:37:29 18° ENE 00:38:19 10° ENE visible
18 Jun ? 02:08:19 12° WNW 02:10:08 21° NNW 02:12:20 10° NE visible
18 Jun ? 03:43:41 10° NNW 03:45:14 14° N 03:46:48 10° NE visible
19 Jun ? 00:50:36 45° N 00:50:36 45° N 00:53:01 10° NE visible
19 Jun ? 02:23:21 10° NW 02:25:10 16° N 02:26:58 10° NNE visible
19 Jun ? 03:58:31 10° NNW 04:00:19 16° N 04:02:07 10° NE visible
19 Jun ? 23:32:22 19° ENE 23:32:22 19° ENE 23:33:26 10° ENE visible
20 Jun ? 01:03:08 12° WNW 01:05:12 26° NNW 01:07:36 10° NE visible
20 Jun ? 02:38:41 10° NW 02:40:15 14° N 02:41:48 10° NNE visible
20 Jun ? 04:13:08 10° NW 04:15:21 21° NNE 04:17:32 10° ENE visible
20 Jun ? 22:12:21 10° ESE 22:12:21 10° ESE 22:12:27 10° ESE visible
20 Jun ? 23:42:46 10° WSW 23:45:28 73° NW 23:48:15 10° NE visible
21 Jun ? 01:18:12 10° WNW 01:20:12 18° NNW 01:22:12 10° NNE visible
21 Jun ? 02:53:40 10° NNW 02:55:20 14° N 02:56:59 10° NE visible
21 Jun ? 04:27:43 10° NW 04:30:17 34° NNE 04:32:50 10° E visible
21 Jun ? 22:23:38 10° SSW 22:26:02 27° SE 22:28:25 10° ENE visible
21 Jun ? 23:57:44 10° W 00:00:18 33° NNW 00:02:52 10° NE visible
22 Jun ? 01:33:36 10° NW 01:35:15 14° N 01:36:54 10° NNE visible
22 Jun ? 03:08:23 10° NNW 03:10:23 18° NNE 03:12:24 10° ENE visible
22 Jun ? 04:42:20 10° NW 04:45:07 75° NE 04:47:50 10° ESE visible
22 Jun ? 22:37:54 10° SW 22:40:39 71° SE 22:43:25 10° ENE visible
23 Jun ? 00:13:02 10° WNW 00:15:14 21° NNW 00:17:26 10° NE visible
23 Jun ? 01:48:46 10° NNW 01:50:21 14° N 01:51:55 10° NE visible
23 Jun ? 03:22:57 10° NW 03:25:22 26° NNE 03:27:46 10° E visible
23 Jun ? 22:52:44 10° WSW 22:55:25 47° NNW 22:58:07 10° NE visible
24 Jun ? 00:28:28 10° NW 00:30:16 16° N 00:32:04 10° NNE visible
24 Jun ? 02:03:36 10° NNW 02:05:25 16° N 02:07:14 10° NE visible
24 Jun ? 03:37:33 10° NW 03:40:15 49° NNE 03:42:56 10° ESE visible
24 Jun ? 23:07:54 10° W 23:10:18 25° NNW 23:12:42 10° NE visible
25 Jun ? 00:43:46 10° NW 00:45:21 14° N 00:46:55 10° NNE visible
25 Jun ? 02:18:13 10° NW 02:20:26 21° NNE 02:22:39 10° ENE visible
25 Jun ? 03:52:16 10° WNW 03:55:01 67° SW 03:57:44 10° SE visible
25 Jun ? 23:23:18 10° WNW 23:25:17 18° NNW 23:27:17 10° NNE visible
